Location: Anuling
(14.1239°N, 120.8922°E)
Time: 12:51:02
(UTC+00:00)

Cosmos 2218 Rocket - Pass Details

Date: 17 April 2026
Orbit: 955 x 1005 km, 82.9° (Epoch: 11 May)

Event Time Altitude Azimuth Distance (km) Brightness Sun altitude
Rises 12:03:28 0° 191° (S) 3,643 6.9 -27.3°
Reaches altitude 10° 12:06:00 10° 194° (SSW) 2,692 6.2 -27.9°
Maximum altitude 12:12:03 62° 274° (W) 1,065 4.3 -29.2°
Drops below altitude 10° 12:18:06 10° 355° (N) 2,678 6.6 -30.6°
Sets 12:20:38 0° 358° (N) 3,624 7.3 -31.2°
